Skip Page Navigation
NASA JPL Caltech
NASA Logo - Jet Propulsion Laboratory + View the NASA Portal
+ Center for Near-Earth Object Studies
JPL Home Earth Solar System Stars & Galaxies Technology
JPL Solar System Dynamics
BODIES ORBITS EPHEMERIDES TOOLS PHYSICAL DATA DISCOVERY FAQ SITE MAP
IMPORTANT: The SSD Announcement email list is now available. Major changes are coming in the near future, including possible hostname and/or URL changes. To be notified of such changes, subscribe to this email list.

Please visit this page for more details.


JPL Small-Body Database Browser
Search: [ help ]  
6262 Javid (1978 RZ)
Classification: Main-belt Asteroid          SPK-ID: 2006262
Ephemeris | Orbit Diagram | Orbital Elements | Mission Design | Physical Parameters | Discovery Circumstances | Close-Approach Data ]

[ show orbit diagram ]
Orbital Elements at Epoch 2459000.5 (2020-May-31.0) TDB
Reference: JPL 37 (heliocentric ecliptic J2000)
 Element Value Uncertainty (1-sigma)   Units 
e .07860132483453747 3.7475e-08  
a 2.90603865370726 1.1816e-08 au
q 2.677620165505494 1.0869e-07 au
i 3.011686745367082 3.7641e-06 deg
node 121.9811762698128 6.895e-05 deg
peri 251.1637852523959 7.2725e-05 deg
M 139.2080501813264 2.38e-05 deg
tp 2458300.799222328206
(2018-Jul-01.29922233)
0.00011922 TDB
period 1809.466332110404
4.95
1.1036e-05
3.021e-08
d
yr
n .1989536879529155 1.2135e-09 deg/d
Q 3.134457141909027 1.2745e-08 au
  Orbit Determination Parameters
   # obs. used (total)      2789  
   data-arc span      17933 days (49.10 yr)  
   first obs. used      1971-03-24  
   last obs. used      2020-04-28  
   planetary ephem.      DE431  
   SB-pert. ephem.      SB431-N16  
   condition code      0  
   norm. resid. RMS      .43978  
   source      ORB  
   producer      Otto Matic  
   solution date      2020-May-20 02:31:53  

Additional Information
 Earth MOID = 1.67963 au 
 Jupiter MOID = 2.2789 au 
 T_jup = 3.278 
[ show covariance matrix ]

Ephemeris | Orbit Diagram | Orbital Elements | Mission Design | Physical Parameters | Discovery Circumstances | Close-Approach Data ]

Physical Parameter Table
Parameter Symbol Value Units Sigma Reference Notes
absolute magnitude H 12.7   n/a MPO337307  
diameter diameter 7.791 km 0.234 urn:nasa:pds:neowise_diameters_albedos::2.0[mainbelt] (http://adsabs.harvard.edu/abs/2011ApJ...741...68M)  
rotation period rot_per 8.02 h n/a LCDB (Rev. 2019-August); Warner et al., 2009 Published Reference List:
[Polishook, D.; Ofek, E.O.; Waszczak, A.; Kulkarni, S.R.; et al. (2012). Mon. Not. Royal Ast. Soc. 421, 2094-2108.]
[Hanus, J.; Broz, M.; Durech, J.; Warner, B.D.; et al. (2013) Astron. Astrophys. 559, A134.]
[Waszczak, A.; Chang, C.-K.; Ofeck, E.O.; Laher, F.; et al. (2015) Astron. J. 150, A75.]
geometric albedo albedo 0.291   0.044 urn:nasa:pds:neowise_diameters_albedos::2.0[mainbelt] (http://adsabs.harvard.edu/abs/2011ApJ...741...68M)  

6262 Javid (1978 RZ)          Discovered 1978-Sep-01 by Chernykh, N. S. at Nauchnyj
Reference: DISCOVERY.DBLast Updated: 2003-08-29

[ show close-approach data ]
Alternate Designations
 1978 RZ = 1977 LH1 = 1988 UG1 
Ephemeris | Orbit Diagram | Orbital Elements | Mission Design | Physical Parameters | Discovery Circumstances | Close-Approach Data ]
ABOUT SSD CREDITS/AWARDS PRIVACY/COPYRIGHT GLOSSARY LINKS
FirstGov 2020-Jun-06 22:02 UT
(server date/time)  
NASA Home Page
Site Manager:   Ryan S. Park
Webmaster  Alan B. Chamberlin